Temp
19 19 19 20 19 19 19 19 19 19 19 19 19 18 18 17 17 17 17 17 17 17 17 17 17 17 17 17 17 18 17 17 17 17 17 17 17 17 17 17 18 18
18 19 19 20 20 19 19 19 19 19 19 19 18 18 17 17 17 17 17 17 17 17 17 17 17 17 17 17 17 17 17 17 17 17 17 17 17 17 17 17 17 18
18 19 19 19 19 19 19 19 19 19 19 18 18 18 17 17 17 17 17 17 17 17 17 17 17 17 17 17 17 17 17 17 17 17 17 17 17 17 17 17 17 18
18 18 18 19 19 18 18 18 18 18 18 18 18 17 17 17 17 17 17 17 17 17 17 17 17 17 17 17 17 17 17 17 17 17 17 17 17 17 17 17 17 18
17 18 18 18 18 18 18 18 18 18 18 18 18 17 17 17 17 17 17 17 17 17 17 17 17 17 17 17 17 17 17 17 17 17 17 17 17 17 17 17 17 17
17 17 18 18 18 18 18 18 17 18 17 17 17 17 17 17 17 17 17 17 17 17 17 17 17 17 17 17 17 17 18 17 17 18 18 17 17 17 17 18 18 17
17 17 18 18 18 18 18 18 17 17 17 17 17 17 17 17 18 18 18 18 18 17 17 17 17 17 17 17 17 17 17 17 17 18 18 18 17 18 18 18 18 18
17 17 18 18 18 18 18 18 17 17 17 17 17 17 17 18 18 18 18 18 18 18 18 18 17 17 17 17 17 17 17 17 17 18 18 17 17 18 17 17 17 18
17 17 18 18 18 18 18 18 17 17 17 17 17 17 18 18 18 18 18 18 18 18 18 18 18 17 17 17 17 17 17 17 17 17 17 17 17 18 18 17 17 17
17 17 17 17 17 18 18 18 17 17 17 17 18 18 18 18 18 18 18 18 18 18 18 18 18 17 17 18 17 17 17 17 17 17 17 17 18 18 18 17 17 17
17 17 17 17 17 18 18 18 18 18 18 18 18 18 18 18 18 18 19 18 18 18 18 18 18 18 18 18 17 17 17 17 17 17 17 17 17 17 17 17 17 17
17 17 17 16 17 17 18 18 18 18 18 18 18 18 18 18 18 18 18 18 18 19 19 19 18 18 18 18 17 17 17 17 17 17 17 17 17 17 17 17 17 17
17 17 16 16 17 17 17 18 18 18 18 18 18 18 18 18 18 18 18 18 18 18 19 19 19 18 18 18 18 17 17 17 16 16 16 16 16 17 17 16 16 16
17 16 16 16 17 17 17 17 17 18 18 18 18 18 18 18 18 18 18 18 18 18 18 19 18 18 18 18 17 17 17 16 16 16 16 16 16 16 16 16 16 16
17 16 16 16 17 17 17 17 17 17 17 18 18 18 18 18 18 18 18 18 18 18 18 18 18 18 18 17 17 17 17 17 17 16 16 17 16 16 16 16 16 16
17 16 15 16 16 16 16 16 16 16 16 16 17 17 17 17 18 18 18 18 18 17 17 17 17 17 17 17 17 17 17 17 16 16 16 16 16 16 16 15 16 16
17 16 16 15 15 15 15 16 15 15 15 15 15 16 16 16 16 17 17 17 16 16 16 15 15 15 16 16 16 16 16 16 16 16 15 15 14 14 14 14 15 15
17 17 16 16 15 15 15 15 15 15 14 14 15 15 15 15 15 15 16 16 15 15 15 14 13 14 15 15 15 15 15 15 15 15 14 13 13 13 14 14 14 14
17 17 17 16 16 16 15 15 15 14 14 15 15 14 14 14 14 14 15 15 14 14 14 13 13 14 15 14 15 15 14 14 14 14 14 13 14 14 14 14 13 14
17 17 17 16 16 16 16 15 15 14 14 14 14 13 13 13 13 13 14 14 13 13 13 13 13 14 14 14 15 14 14 14 14 14 14 14 14 14 14 15 15 15
18 17 17 16 16 16 16 15 15 14 14 14 13 13 13 13 13 13 14 13 13 13 13 13 14 14 14 14 14 14 14 14 14 14 15 15 15 15 16 16 15 15
18 18 17 17 17 17 16 16 15 15 14 15 14 14 14 14 13 14 14 13 13 13 13 13 13 14 14 14 14 14 14 15 15 15 16 16 16 16 16 15 15 15
18 18 18 18 17 17 17 17 16 16 15 15 15 15 15 14 13 13 14 14 14 14 14 13 14 14 14 14 14 15 15 15 15 16 16 16 16 15 15 14 14 14
17 17 17 17 17 18 18 17 17 16 16 16 15 15 15 14 14 14 14 14 14 15 15 14 14 14 14 14 14 15 15 15 16 17 17 16 16 15 14 14 13 14
16 16 16 17 17 17 17 17 17 17 16 16 16 16 16 15 15 15 15 15 15 15 15 15 14 14 15 15 15 15 15 15 16 17 16 16 16 15 14 13 13 13
15 15 15 15 16 16 16 16 17 17 17 16 16 16 17 16 16 16 16 16 16 15 15 15 14 14 15 15 15 15 15 15 16 17 16 15 16 15 14 13 12 12
Height
814 815 815 815 816 816 816 817 818 819 819 820 821 823 824 825 826 826 826 826 827 827 828 828 828 828 829 828 828 828 828 828 829 829 830 830 830 830 831 831 831 831
813 815 815 816 816 816 817 817 818 819 820 821 822 823 824 825 826 826 827 827 827 828 829 829 829 829 830 830 830 830 830 830 830 830 831 831 832 832 832 832 832 832
813 814 815 816 816 817 817 818 819 820 821 822 822 824 825 826 827 827 827 828 828 829 830 830 830 830 830 831 831 831 831 831 831 832 832 833 833 833 834 834 834 834
812 814 815 816 817 817 818 818 819 820 821 823 823 824 825 826 827 827 828 829 829 830 831 831 831 831 831 831 831 832 832 832 833 833 834 834 834 835 835 835 835 835
811 813 815 816 817 818 818 818 819 820 822 823 823 824 825 826 827 827 828 829 830 831 831 832 832 832 832 832 832 833 833 833 834 834 835 835 836 836 836 837 837 837
810 813 815 816 816 817 818 819 820 821 823 824 824 824 825 825 826 828 829 829 830 831 831 832 833 833 833 833 834 834 834 835 835 835 836 836 837 837 838 838 838 838
810 813 815 815 816 817 818 819 820 822 823 824 824 825 825 826 827 828 829 830 830 831 832 832 833 833 834 834 835 835 835 836 836 836 837 837 838 838 839 839 839 839
810 812 814 814 815 816 817 819 820 821 823 824 824 825 825 826 827 828 829 830 830 831 832 833 833 834 835 835 835 836 836 837 837 837 838 838 839 839 839 840 840 840
809 810 812 813 815 816 817 818 820 821 823 824 824 825 826 826 827 828 829 829 830 831 832 832 833 834 835 835 836 836 837 837 838 838 838 839 839 840 840 840 841 841
807 808 810 812 814 816 817 818 820 821 823 824 825 825 825 826 826 827 828 829 830 830 831 832 833 834 835 835 836 836 837 837 838 838 839 839 839 840 840 840 841 841
806 807 809 811 813 815 816 818 819 821 822 823 824 825 825 826 826 827 828 828 829 829 830 831 832 833 834 835 836 836 837 837 837 838 838 839 839 839 840 840 841 841
805 806 808 810 812 814 815 817 818 820 821 822 823 824 825 826 826 827 827 827 828 829 829 830 831 832 833 834 835 836 836 837 837 837 838 838 838 839 839 839 840 841
804 806 808 810 811 812 814 816 817 819 820 821 822 823 824 825 826 826 826 827 827 828 828 829 830 830 831 833 833 834 835 836 836 836 837 837 837 837 837 838 838 839
803 805 807 808 810 811 813 814 816 818 819 820 821 822 823 824 825 825 825 826 826 827 827 827 828 829 830 831 832 833 834 835 835 835 835 835 836 835 836 836 837 837
803 804 806 807 809 810 812 814 815 817 818 819 820 821 822 823 823 824 824 824 824 825 826 826 827 828 829 830 831 832 832 833 833 833 833 833 833 833 834 834 834 835
803 804 805 807 808 810 812 813 814 815 816 818 819 820 821 821 822 823 823 823 823 824 825 825 825 826 827 828 829 830 831 832 832 832 832 832 832 832 832 832 833 834
803 804 805 807 808 810 812 813 814 815 815 816 818 820 820 820 822 822 822 822 822 823 825 825 826 827 826 827 828 829 830 830 831 831 831 832 833 833 832 832 832 833
803 804 805 806 808 810 811 812 813 814 814 815 817 820 820 820 821 822 821 821 821 823 824 825 826 827 826 827 828 828 829 829 830 831 831 832 833 834 834 833 833 833
803 804 805 806 807 808 810 811 812 813 814 815 816 817 819 820 821 822 821 821 821 823 823 824 825 825 825 826 826 827 827 828 829 830 831 832 832 833 835 835 834 834
803 804 804 805 806 807 808 809 811 811 812 814 814 816 818 820 821 821 821 821 822 822 823 824 825 824 824 825 825 826 827 827 829 830 830 831 831 832 833 834 834 833
803 804 805 805 806 807 808 809 810 811 812 814 815 816 818 818 818 819 819 820 820 820 821 823 825 824 823 824 824 825 826 827 828 829 829 829 830 831 832 832 833 833
804 805 805 806 806 807 807 808 809 810 812 813 813 815 816 816 816 817 817 818 819 819 820 822 824 823 823 823 824 825 826 827 828 828 828 828 830 831 832 832 832 833
806 806 806 806 807 807 807 808 809 810 810 811 812 813 814 814 815 816 816 816 818 819 820 821 822 822 822 823 823 824 825 826 827 827 827 827 829 830 831 831 832 833
807 807 807 808 807 807 807 807 808 809 809 810 811 812 812 813 814 815 816 816 817 818 820 821 821 822 822 822 823 823 824 825 825 825 825 827 828 830 831 831 831 833
809 809 809 809 808 808 808 808 808 809 809 809 810 811 812 813 813 814 815 815 816 818 819 821 821 821 821 822 822 823 823 824 823 823 825 826 828 829 830 831 832 832
811 811 811 811 810 809 809 809 809 808 808 809 810 810 810 811 812 813 814 815 815 817 818 820 820 820 821 821 822 822 823 823 822 823 824 826 827 828 830 831 832 833
Wind_Speed
8 8 8 9 10 10 10 10 11 11 11 11 11 11 10 10 9 9 9 9 9 9 8 8 8 8 8 8 9 9 10 10 10 10 10 10 10 11 10 10 9 9
8 8 8 8 9 10 10 10 11 11 11 12 12 11 11 10 10 9 9 9 9 9 8 8 8 8 8 8 9 9 9 10 10 9 10 10 10 10 10 10 9 9
10 9 8 8 9 11 11 11 10 10 11 12 13 12 11 11 10 10 9 9 9 8 8 8 8 8 8 8 9 9 9 10 9 9 9 9 9 9 9 9 9 9
12 11 9 9 10 11 11 11 11 10 11 12 14 13 12 11 11 10 10 9 9 8 8 8 8 8 9 8 9 9 9 9 9 8 9 9 9 9 9 9 9 10
13 12 10 10 11 12 12 12 11 11 11 12 14 14 14 13 12 11 10 9 9 8 8 8 8 8 8 8 8 9 9 8 8 8 8 8 8 8 8 8 9 9
14 14 13 12 13 12 12 12 11 11 11 12 13 13 14 14 13 12 11 10 9 9 8 8 7 7 7 7 7 7 8 8 7 7 8 7 7 7 7 7 8 8
15 15 14 13 14 14 12 12 11 11 11 11 11 12 13 14 13 13 12 11 11 10 9 8 8 8 7 7 7 7 7 7 6 6 7 7 6 6 6 6 7 7
15 14 13 13 14 15 13 12 12 12 11 11 11 12 13 13 13 13 12 12 11 10 10 9 8 8 7 7 7 7 6 6 5 5 6 6 5 5 6 5 5 6
14 13 13 13 14 15 14 13 12 12 12 11 11 12 13 13 13 13 13 12 12 11 11 10 9 8 7 7 7 7 6 6 5 5 5 5 4 4 5 5 4 4
12 12 13 14 13 14 14 14 13 13 13 12 11 12 13 13 13 13 13 13 12 12 12 11 10 9 8 8 7 7 7 7 6 6 5 4 4 4 4 4 4 3
12 13 13 13 13 12 13 15 14 13 13 13 12 12 12 12 13 13 13 13 12 12 12 11 11 10 9 9 8 7 7 7 7 6 6 5 5 5 4 4 4 3
12 13 13 13 14 12 12 14 15 14 14 13 12 12 12 12 13 13 13 13 12 11 12 12 11 11 10 10 9 9 8 8 7 7 7 6 6 6 6 6 5 5
12 13 12 12 14 14 13 13 14 14 14 13 13 13 13 13 13 13 12 12 11 11 11 11 11 10 10 10 9 10 9 9 8 9 8 8 8 8 8 8 7 7
12 13 12 12 13 13 12 11 12 12 12 13 14 14 15 14 14 13 13 12 12 13 12 11 11 10 10 10 9 9 10 10 11 11 10 11 11 11 10 10 9 8
10 12 11 11 11 11 11 11 10 11 11 12 12 13 15 15 14 14 14 13 14 14 13 12 11 10 10 10 10 9 10 11 12 12 12 13 13 13 12 12 11 10
8 9 9 9 9 10 10 10 10 10 11 12 11 11 11 13 13 14 14 14 14 13 12 11 10 11 11 12 13 11 11 11 12 13 14 14 14 15 14 13 11 10
6 6 7 9 9 8 8 9 9 9 9 11 12 12 11 11 11 11 13 13 12 12 14 13 10 10 13 15 16 16 14 13 13 13 14 15 15 14 12 12 11 9
5 4 5 7 7 6 6 6 7 8 8 10 14 15 13 11 11 11 13 14 12 14 17 16 12 11 12 14 15 16 17 16 15 12 11 12 13 11 7 7 8 7
5 4 4 5 5 5 5 4 5 7 8 9 11 12 11 12 13 12 13 12 11 13 11 8 8 10 11 12 13 13 14 16 15 11 7 8 9 7 6 7 8 7
4 4 4 4 4 4 5 5 5 5 6 8 10 11 12 14 13 12 11 10 11 12 7 3 5 9 10 9 10 9 9 11 12 9 7 7 8 9 9 8 6 5
4 3 3 2 3 3 4 6 6 7 8 10 10 11 12 12 11 10 10 10 10 11 10 8 9 9 9 9 8 8 8 8 8 7 7 8 8 7 6 5 5 3
5 3 2 1 1 1 2 4 5 7 9 9 9 10 9 9 10 10 10 9 8 10 12 13 12 10 10 9 8 8 8 7 6 6 6 7 6 5 5 4 5 4
5 4 2 1 1 2 3 3 3 5 6 7 8 9 8 8 10 10 10 9 9 10 10 12 13 13 11 10 9 9 9 8 7 7 6 5 5 5 4 4 5 4
5 5 4 3 3 4 3 3 3 4 5 6 6 7 7 7 8 9 9 9 11 11 10 11 12 12 11 11 11 10 11 10 8 7 6 5 5 5 3 3 6 6
5 5 5 5 5 5 4 4 5 5 6 6 6 7 7 8 9 9 10 11 11 11 10 10 11 12 12 11 11 12 12 11 9 7 7 5 5 6 4 3 5 7
5 5 5 6 7 6 5 5 6 6 6 7 7 8 9 9 10 11 11 11 10 11 12 10 10 12 12 12 12 12 12 11 8 6 7 6 6 7 7 6 5 5
Wind_Direction
167 171 174 169 165 161 157 154 153 152 147 141 136 131 127 122 117 112 103 99 96 92 92 91 87 85 82 74 72 77 73 68 69 66 64 65 62 60 58 54 52 57
176 177 177 174 167 160 158 155 154 153 148 143 138 132 130 127 123 118 110 105 101 97 97 96 93 92 90 86 81 81 79 74 72 70 68 67 65 62 58 56 52 55
182 180 178 177 168 159 157 154 152 153 148 144 139 136 136 134 130 124 117 113 108 105 103 100 100 98 94 93 90 86 84 81 77 76 73 70 68 66 62 59 55 54
183 183 180 177 168 159 156 154 152 152 151 149 145 143 143 140 137 131 125 122 117 113 111 107 104 102 100 98 94 91 89 85 82 80 79 76 72 70 68 63 61 62
183 186 184 177 167 161 158 155 156 156 158 158 152 150 149 145 143 140 136 133 128 123 119 114 110 107 105 103 100 99 96 91 87 86 84 83 78 76 73 70 67 65
184 189 190 179 167 165 161 158 162 163 164 165 158 154 154 150 149 149 148 145 140 137 132 126 122 116 112 110 107 103 103 101 98 96 93 87 84 82 77 75 73 69
183 187 188 178 168 168 167 166 169 169 169 168 162 160 159 157 155 156 156 154 150 147 143 139 135 129 124 120 116 110 109 110 108 106 102 95 91 88 80 75 76 76
182 184 182 178 173 171 173 174 173 172 171 169 165 166 167 165 162 160 161 160 157 155 152 149 146 143 139 134 129 124 119 117 114 112 108 105 104 97 93 87 77 80
181 181 180 181 179 176 177 175 172 173 174 175 174 173 174 173 167 165 166 165 164 162 160 158 154 152 151 147 144 142 138 134 130 127 125 125 129 126 120 111 100 96
182 179 179 182 182 182 180 174 172 175 180 185 183 179 180 177 171 171 172 169 170 168 166 165 163 161 162 161 159 159 156 154 154 152 152 155 156 152 144 140 141 135
186 182 179 181 185 187 184 178 176 178 184 188 186 184 184 179 176 178 177 175 176 176 174 174 172 170 170 169 168 171 172 169 170 172 172 177 177 172 173 170 171 173
186 183 179 180 184 186 187 187 186 185 186 187 188 188 185 183 184 183 183 183 184 186 186 183 182 182 180 179 178 179 181 179 180 184 186 190 191 188 190 188 187 191
182 181 178 178 182 184 188 192 193 192 191 191 194 194 190 192 193 191 193 193 193 200 201 193 191 192 188 187 187 185 187 191 196 198 200 205 206 205 202 197 197 198
179 179 184 185 184 185 188 194 201 202 200 199 202 202 200 200 199 200 203 203 202 207 210 205 200 197 195 195 200 202 199 202 208 209 213 215 215 215 212 205 203 206
180 179 188 190 188 189 191 195 201 205 209 212 213 211 208 207 209 210 210 211 213 210 211 209 200 198 203 203 210 218 215 216 220 220 223 225 219 216 214 208 205 205
180 180 187 191 189 191 197 200 202 206 212 217 222 219 209 210 221 220 214 217 219 213 213 211 198 200 210 210 212 218 221 229 233 228 229 234 230 221 213 206 202 197
163 173 184 188 187 192 204 208 207 211 214 216 222 224 212 209 223 225 218 223 228 227 230 228 217 213 214 215 219 222 225 233 239 237 234 237 244 242 223 205 199 192
142 147 161 170 176 187 197 199 201 209 214 211 213 220 218 217 228 233 228 229 236 236 230 223 218 218 223 227 230 232 233 234 241 250 244 238 251 267 258 218 201 185
132 135 141 150 168 183 185 191 200 202 207 210 211 218 228 230 232 236 231 230 240 244 236 220 211 220 234 239 234 234 236 231 235 253 263 244 237 232 225 219 202 182
119 130 141 149 173 184 187 205 221 220 222 223 222 226 232 233 234 236 231 229 238 248 257 272 243 233 233 227 218 219 222 214 219 233 242 231 212 193 197 204 190 173
88 101 116 141 175 183 190 204 218 231 231 223 219 222 223 225 230 232 228 226 231 236 234 228 229 223 206 194 193 196 196 194 204 217 214 206 197 184 181 176 162 156
49 62 67 85 181 194 217 215 213 219 219 213 217 222 221 220 222 221 221 217 213 217 216 210 207 197 181 179 182 181 185 191 208 221 208 186 174 168 164 152 137 135
19 17 14 347 294 262 244 235 219 214 211 209 216 219 215 213 214 215 214 200 187 191 190 185 185 184 178 180 183 182 190 204 216 217 204 184 171 166 165 164 158 160
359 346 343 333 303 285 270 252 241 235 223 209 207 209 206 201 202 208 206 190 186 192 186 177 182 187 185 189 195 197 198 208 219 211 193 188 183 167 154 178 188 190
347 331 325 315 303 302 299 276 259 250 232 212 207 213 211 202 195 197 195 192 195 196 187 180 183 186 186 189 195 198 196 202 219 210 184 187 195 175 149 147 182 188
340 331 325 313 304 305 302 282 266 253 235 222 222 225 219 208 204 204 200 196 195 187 183 184 183 182 184 182 181 185 188 199 223 212 182 188 202 185 165 148 151 168